User: anonymous   Login
Location: Unspecified
(0.0000°N, 0.0000°E)
Time: 00:33:11
(UTC+00:00)
Language:

CLOUDSAT - Orbit

View from above orbital plane
View from above orbital plane
View from above satellite
View from above satellite

Ground track
Ground track

The orbit data is extracted from the following two-line orbital elements,

1 29107U 06016A   15116.94387246  .00004500  00000-0  10077-2 0  9995
2 29107 098.2088 061.3892 0001481 031.6557 328.4661 14.57130385478529
Epoch (UTC): 26 April 2015 22:39:10
Eccentricity: 0.0001481
inclination: 98.2088°
perigee height: 701 km
apogee height: 703 km
right ascension of ascending node: 61.3892°
argument of perigee: 31.6557°
revolutions per day: 14.57130385
mean anomaly at epoch: 328.4661°
orbit number at epoch: 47852

The dashed part of the orbit path shows where the satellite is in the earth's shadow,  

DLR